Location: Barrio Las Umbrías
(40.4173°N, 4.8685°W)
Time: 13:31:20
(UTC+00:00)

SL-23 DEB - Pass Details

Date: 17 August 2022
Orbit: 426 x 3604 km, 51.5° (Epoch: 27 September)

Event Time Altitude Azimuth Distance (km) Brightness Sun altitude
Rises 21:19:09 0° 303° (WNW) 3,341 9.3 -21.5°
Reaches altitude 10° 21:22:09 10° 297° (WNW) 2,059 7.8 -21.9°
Enters shadow 21:26:07 41° 231° (SW) 735 4.4 -22.5°
